, AK

(GMT )
McGrath

Weather History for PAMC - December, 2012

Change the Weather History Date:

Sunday, December 9, 2012

  Actual Average Record
Temperature  
Mean Temperature 4 °F -2 °F  
Max Temperature 8 °F - 40 °F (1960)
Min Temperature -1 °F -10 °F -53 °F (1946)
Degree Days  
Heating Degree Days 61 67  
Month to date heating degree days 767 593  
Since 1 July heating degree days 5155 4725  
Cooling Degree Days 0    
Month to date cooling degree days 0  
Year to date cooling degree days 4 16  
Moisture  
Dew Point 0 °F    
Average Humidity 0    
Maximum Humidity 0    
Minimum Humidity 0    
Precipitation  
Precipitation 0.14 in 0.04 in 0.80 in (1961)
Month to date precipitation 0.28 0.35  
Year to date precipitation 21.73 17.06  
Snow  
Snow 2.20 in 0.70 in 8.20 in (1979)
Month to date snowfall 4.0 5.7  
Since 1 July snowfall 16.7 36.7  
Snow Depth 9.00 in    
Sea Level Pressure  
Sea Level Pressure 29.43 in    
Wind  
Wind Speed 1 mph (NE)    
Max Wind Speed 6 mph    
Max Gust Speed 9 mph    
Visibility 4 miles    
Events Snow    
T = Trace of Precipitation, MM = Missing Value Source: NWS Daily Summary

Daily Weather History Graph

Daily Weather History Graph

Search for Another Location

Airport or City:

Trip Planner

Search our weather history database for the weather conditions in past years. The results will help you decide how hot, cold, wet, or windy it might be!

Date:

Astronomy

Dec. 09, 2012 Rise Set
Actual Time 10:44 AM AKST 3:45 PM AKST
Civil Twilight 9:36 AM AKST 4:53 PM AKST
Nautical Twilight 8:32 AM AKST 5:57 PM AKST
Astronomical Twilight 7:35 AM AKST 6:54 PM AKST
Moon 5:21 AM AKST (12/9) 2:01 PM AKST (12/9)
Length of Visible Light 7h 17m
Length of Day
5h 00m
Waning Crescent, 17% of the Moon is Illuminated
Dec 9
Waning Crescent
Dec 12
New
Dec 19
First Quarter
Dec 28
Full
Jan 4
Last Quarter

Hourly Weather History & Observations

Time (AKST) Temp. Windchill Dew Point Humidity Pressure Visibility Wind Dir Wind Speed Gust Speed Precip Events Conditions
12:03 AM 1.4 °F - -4.0 °F 78% 29.34 in 3.0 mi Calm Calm - 0.01 in Snow Light Snow
12:10 AM 1.4 °F - -2.2 °F 85% 29.33 in 4.0 mi Calm Calm - 0.01 in Snow Light Snow
12:33 AM 1.4 °F -6.2 °F -2.2 °F 85% 29.33 in 2.5 mi NNW 3.5 mph - 0.01 in Snow Light Snow
12:53 AM 1.9 °F - -2.9 °F 80% 29.38 in 3.0 mi Calm Calm - 0.01 in Snow Light Snow
1:09 AM 1.4 °F - -2.2 °F 85% 29.34 in 2.5 mi Calm Calm - 0.00 in Snow Light Snow
1:49 AM 1.4 °F - -4.0 °F 78% 29.33 in 2.5 mi Calm Calm - 0.01 in Snow Light Snow
1:53 AM 1.0 °F - -2.9 °F 83% 29.37 in 2.5 mi Calm Calm - 0.01 in Snow Light Snow
2:07 AM 1.4 °F - -2.2 °F 85% 29.33 in 2.0 mi Calm Calm - 0.00 in Snow Light Snow
2:17 AM 1.4 °F - -2.2 °F 85% 29.34 in 1.8 mi Calm Calm - 0.00 in Snow Light Snow
2:53 AM 1.9 °F - -2.9 °F 80% 29.38 in 1.8 mi Calm Calm - 0.02 in Snow Light Snow
3:53 AM 1.9 °F - -2.0 °F 83% 29.38 in 1.2 mi Calm Calm - 0.02 in Snow Light Snow
4:07 AM 1.4 °F - -2.2 °F 85% 29.34 in 2.0 mi Calm Calm - 0.00 in Snow Light Snow
4:18 AM 1.4 °F - -2.2 °F 85% 29.34 in 5.0 mi Calm Calm - 0.01 in Snow Light Snow
4:53 AM 3.0 °F - -0.9 °F 84% 29.38 in 6.0 mi Calm Calm - 0.01 in Snow Light Snow
5:53 AM 3.9 °F - -0.9 °F 80% 29.39 in 4.0 mi Calm Calm - 0.00 in Snow Light Snow
6:53 AM 5.0 °F -2.1 °F -0.0 °F 80% 29.39 in 7.0 mi NNE 3.5 mph - 0.00 in Snow Light Snow
7:11 AM 5.0 °F - -0.4 °F 78% 29.35 in 2.5 mi Calm Calm - 0.01 in Snow Light Snow
7:20 AM 5.0 °F - -0.4 °F 78% 29.35 in 3.0 mi Calm Calm - 0.01 in Snow Light Snow
7:53 AM 5.0 °F -4.1 °F -0.0 °F 80% 29.39 in 8.0 mi North 4.6 mph - 0.01 in Snow Light Snow
8:53 AM 5.0 °F -4.1 °F -0.0 °F 80% 29.39 in 9.0 mi North 4.6 mph - 0.00 in Snow Light Snow
9:53 AM 6.1 °F - 1.0 °F 80% 29.40 in 9.0 mi Calm Calm - 0.00 in Snow Light Snow
10:53 AM 3.0 °F - -0.9 °F 84% 29.42 in 9.0 mi Calm Calm - 0.00 in   Partly Cloudy
11:53 AM 5.0 °F - 1.0 °F 84% 29.43 in 10.0 mi Calm Calm - N/A   Overcast
12:53 PM 6.1 °F - 1.0 °F 80% 29.44 in 10.0 mi Calm Calm - N/A   Overcast
1:53 PM 1.0 °F - -2.9 °F 83% 29.46 in 10.0 mi Calm Calm - N/A   Mostly Cloudy
2:53 PM -0.0 °F - -4.0 °F 83% 29.48 in 10.0 mi Calm Calm - N/A   Scattered Clouds
3:53 PM 3.9 °F - -0.9 °F 80% 29.48 in 10.0 mi Calm Calm - N/A   Overcast
4:53 PM 5.0 °F - 1.0 °F 84% 29.49 in 10.0 mi Calm Calm - N/A   Overcast
5:53 PM 5.0 °F - 1.0 °F 84% 29.50 in 10.0 mi Calm Calm - N/A   Mostly Cloudy
6:53 PM 6.1 °F - 1.9 °F 83% 29.51 in 5.0 mi Calm Calm - 0.00 in Snow Light Snow
7:17 PM 6.8 °F - 1.4 °F 79% 29.48 in 2.5 mi Calm Calm - 0.00 in Snow Light Snow
7:53 PM 7.0 °F - 1.9 °F 80% 29.52 in 2.0 mi Calm Calm - 0.01 in Snow Light Snow
8:04 PM 6.8 °F - 3.2 °F 85% 29.49 in 1.5 mi Calm Calm - 0.00 in Snow Light Snow
8:23 PM 6.8 °F - 3.2 °F 85% 29.49 in 2.5 mi Calm Calm - 0.01 in Snow Light Snow
8:41 PM 6.8 °F - 3.2 °F 85% 29.49 in 1.5 mi Calm Calm - 0.02 in Snow Light Snow
8:53 PM 7.0 °F - 3.0 °F 84% 29.52 in 1.5 mi Calm Calm - 0.02 in Snow Light Snow
9:19 PM 8.6 °F - 3.2 °F 79% 29.49 in 2.5 mi Calm Calm - 0.01 in Snow Light Snow
9:35 PM 8.6 °F - 3.2 °F 79% 29.50 in 1.5 mi Calm Calm - 0.01 in Snow Light Snow
9:53 PM 8.1 °F - 3.0 °F 80% 29.53 in 1.5 mi Calm Calm - 0.02 in Snow Light Snow
10:14 PM 8.6 °F - 3.2 °F 79% 29.50 in 2.5 mi Calm Calm - 0.00 in Snow Light Snow
10:34 PM 8.6 °F 0.1 °F 3.2 °F 79% 29.50 in 1.8 mi ESE 4.6 mph - 0.01 in Snow Light Snow
10:53 PM 8.1 °F -0.5 °F 3.0 °F 80% 29.55 in 3.0 mi Variable 4.6 mph - 0.01 in Snow Light Snow
11:16 PM 8.6 °F - 3.2 °F 79% 29.52 in 1.8 mi Calm Calm - 0.00 in Snow Light Snow
11:53 PM 8.1 °F 1.4 °F 3.0 °F 80% 29.56 in 2.0 mi ESE 3.5 mph - 0.01 in Snow Light Snow